Regional Weather Roundup
Issued by NWS Jackson, KY

Home | Current Version | Previous Version | Graphics & Text | Print | Product List | Glossary On
Versions: 1 2 3 4 5 6 7 8 9 10 11 12 13 14 15 16 17 18 19 20 21 22 23 24 25 26 27 28 29 30 31 32 33 34 35 36 37 38 39 40 41 42 43 44 45 46 47 48 49 50
943
ASUS43 KJKL 100410
RWRJKL

EAST KENTUCKY HOURLY WEATHER ROUNDUP
NATIONAL WEATHER SERVICE JACKSON KY
1100 PM EST FRI DEC 09 2016

NOTE: "FAIR" INDICATES FEW OR NO CLOUDS BELOW 12,000 FEET WITH
NO SIGNIFICANT WEATHER AND/OR OBSTRUCTIONS TO VISIBILITY.

* THESE REPORTS ARE NOT UNDER NWS QUALITY CONTROL AND MAY NOT
  REPORT WEATHER SUCH AS PRECIPITATION AND FOG.

KYZ079-080-083-085-087-088-110-112-115-119-120-100500
...EASTERN KENTUCKY...

CITY           SKY/WX    TMP DP  RH WIND       PRES   REMARKS
JACKSON        CLOUDY    21  14  74 CALM      30.51S
LONDON         CLEAR     19  13  77 CALM      30.52S
SOMERSET*      PTCLDY    19  14  79 CALM      30.57R
MONTICELLO*    CLEAR     12   9  87 W7        30.57R WCI   1
MIDDLESBORO*   CLEAR     20  17  88 CALM      30.54R
HARLAN APT*    CLEAR     21  16  79 CALM      30.50S
PIKE CO APT*   CLOUDY    21  16  79 W3        30.51R
BIG SANDY APT* CLOUDY    23  14  69 N3        30.52F
MOREHEAD APT*  CLOUDY    23  10  58 CALM      30.55F
ASHLAND*       CLOUDY    25  14  63 W6        30.54F WCI  18
$$

KYZ035-036-041-042-044-050-067-078-099-100500
...CENTRAL KENTUCKY...

CITY           SKY/WX    TMP DP  RH WIND       PRES   REMARKS
MT STERLING*   CLOUDY    23  14  68 CALM      30.55S
FLEMING/MASON* PTCLDY    20  13  75 CALM      30.54S
DANVILLE*      CLOUDY    19  18  93 CALM      30.55R
LEXINGTON      CLOUDY    22  12  65 NE5       30.53S WCI  16
FRANKFORT      PTCLDY    22  12  65 CALM      30.54R
LOUISVILLE     MOCLDY    25  12  58 W3        30.57R
LEBANON*       MOCLDY    19  16  86 CALM      30.56R
GLASGOW*       CLEAR     19  15  85 CALM      30.58R
BOWLING GREEN  CLEAR     21  15  78 CALM      30.60R
$$

KYZ091>093-OHZ055-061-077-WVZ005-015-034-035-042-100500
...SOUTHERN OHIO/WEST VIRGINIA...

CITY           SKY/WX    TMP DP  RH WIND       PRES   REMARKS
COVINGTON      MOCLDY    22  14  71 CALM      30.51S
COLUMBUS       FLURRIES  25  18  74 W12       30.49F WCI  14
DAYTON         FLURRIES  22  19  89 W6        30.49F WCI  14
WILMINGTON     CLOUDY    22  16  78 W7        30.49F WCI  13
HUNTINGTON     CLOUDY    24  12  60 SW5       30.54F WCI  18
CHARLESTON     FLURRIES  24  12  60 W8        30.54R WCI  15
PINEVILLE*       N/A     23  11  61 MISG      30.52R
BECKLEY        CLOUDY    18   9  68 NW7       30.41R WCI   9
BLUEFIELD      CLOUDY    16   9  74 NW8       30.39R WCI   5
LOGAN CO APT*  CLOUDY    21  12  68 CALM      30.49R
$$

VAZ002-007-008-TNZ017-027-036-066-071-100500
...SOUTHWEST VIRGINIA/EAST TENNESSEE...

CITY           SKY/WX    TMP DP  RH WIND       PRES   REMARKS
WISE*          MOCLDY    19  14  79 CALM      30.42S
ABINGDON*      CLEAR     19  15  84 CALM      30.46R
BRISTOL        CLEAR     19  13  77 N5        30.50R WCI  12
MORRISTOWN*    CLEAR     21  18  86 CALM      30.50R
SEVIERVILLE*   CLEAR     19  16  86 CALM      30.52R
KNOXVILLE      CLEAR     26  16  65 NE3       30.52R
OAK RIDGE      CLEAR     27  16  63 CALM      30.55R
CROSSVILLE     CLEAR     21  14  74 NE3       30.48R
NASHVILLE      CLEAR     27  17  66 N7        30.58R WCI  19
$$

...KEY TO REMARKS...
VSB - VISIBILITY IN MILES
WCI - WIND CHILL INDEX
HX  - HEAT INDEX

$$




USA.gov is the U.S. government's official web portal to all federal, state and local government web resources and services.